Change the Weather History Date:

Monday, January 7, 2013

  Actual Average (KSFM) Record (KSFM)
Temperature  
Mean Temperature 26 °F -  
Max Temperature 35 °F 30 °F 48 °F (2007)
Min Temperature 16 °F 13 °F -7 °F (2015)
Degree Days  
Heating Degree Days 39    
Moisture  
Dew Point 18 °F    
Average Humidity 67    
Maximum Humidity 93    
Minimum Humidity 38    
Precipitation  
Precipitation 0.00 in - - ()
Sea Level Pressure  
Sea Level Pressure 30.20 in    
Wind  
Wind Speed 2 mph (NNW)    
Max Wind Speed 8 mph    
Max Gust Speed -    
Visibility 10 miles    
Events      
Averages and records for this station are not official NWS values.
T = Trace of Precipitation, MM = Missing Value Source: NWS Daily Summary

Daily Weather History Graph

Daily Weather History Graph

Search for Another Location

Airport or City:

Trip Planner

Search our weather history database for the weather conditions in past years. The results will help you decide how hot, cold, wet, or windy it might be!

Date:

Astronomy

Jan. 07, 2013 Rise Set
Actual Time 7:15 AM EST 4:24 PM EST
Civil Twilight 6:43 AM EST 4:56 PM EST
Nautical Twilight 6:07 AM EST 5:32 PM EST
Astronomical Twilight 5:33 AM EST 6:07 PM EST
Moon 2:33 AM EST (1/7) 12:34 PM EST (1/7)
Length of Visible Light 10h 13m
Length of Day
9h 09m
Waning Crescent, 23% of the Moon is Illuminated
Jan 7
Waning Crescent
Jan 11
New
Jan 18
First Quarter
Jan 26
Full
Feb 3
Last Quarter

Hourly Weather History & Observations

Time (EST) Temp. Windchill Dew Point Humidity Pressure Visibility Wind Dir Wind Speed Gust Speed Precip Events Conditions
12:51 AM 30.9 °F - 24.1 °F 76% 29.93 in 10.0 mi Calm Calm - N/A   Clear
1:51 AM 27.0 °F - 21.9 °F 81% 29.95 in 10.0 mi Calm Calm - N/A   Overcast
2:51 AM 33.1 °F 27.7 °F 26.1 °F 75% 29.96 in 10.0 mi WNW 5.8 mph - N/A   Overcast
3:51 AM 35.1 °F - 26.1 °F 70% 29.97 in 10.0 mi Calm Calm - N/A   Overcast
4:51 AM 34.0 °F 31.0 °F 26.1 °F 73% 29.99 in 10.0 mi Variable 3.5 mph - N/A   Overcast
5:51 AM 30.0 °F - 25.0 °F 82% 30.04 in 10.0 mi Calm Calm - N/A   Mostly Cloudy
6:51 AM 30.9 °F - 26.1 °F 82% 30.08 in 10.0 mi Calm Calm - N/A   Mostly Cloudy
7:19 AM 26.6 °F 21.2 °F 24.8 °F 93% 30.10 in 10.0 mi North 4.6 mph - N/A   Mostly Cloudy
7:51 AM 28.0 °F 22.8 °F 24.1 °F 85% 30.13 in 10.0 mi North 4.6 mph - N/A   Overcast
8:38 AM 28.4 °F 22.2 °F 24.8 °F 86% 30.17 in 10.0 mi North 5.8 mph - N/A   Overcast
8:51 AM 28.9 °F 22.8 °F 24.1 °F 82% 30.19 in 10.0 mi NNE 5.8 mph - N/A   Overcast
9:05 AM 28.4 °F 23.3 °F 24.8 °F 86% 30.20 in 10.0 mi NNE 4.6 mph - N/A   Mostly Cloudy
9:51 AM 30.0 °F 24.1 °F 24.1 °F 79% 30.24 in 10.0 mi North 5.8 mph - N/A   Mostly Cloudy
10:23 AM 30.2 °F 26.7 °F 24.8 °F 80% 30.24 in 10.0 mi Variable 3.5 mph - N/A   Mostly Cloudy
11:51 AM 32.0 °F 24.8 °F 18.0 °F 56% 30.25 in 10.0 mi NNW 8.1 mph - N/A   Overcast
12:51 PM 33.1 °F 28.7 °F 17.1 °F 52% 30.27 in 10.0 mi WNW 4.6 mph - N/A   Partly Cloudy
1:51 PM 33.1 °F 30.0 °F 14.0 °F 46% 30.28 in 10.0 mi West 3.5 mph - N/A   Clear
2:51 PM 32.0 °F 27.5 °F 12.9 °F 45% 30.31 in 10.0 mi WNW 4.6 mph - N/A   Clear
3:51 PM 30.9 °F 25.2 °F 8.1 °F 38% 30.33 in 10.0 mi WNW 5.8 mph - N/A   Clear
4:51 PM 28.9 °F - 6.1 °F 38% 30.35 in 10.0 mi Calm Calm - N/A   Clear
5:51 PM 27.0 °F - 8.1 °F 45% 30.36 in 10.0 mi Calm Calm - N/A   Clear
6:51 PM 25.0 °F - 9.0 °F 51% 30.37 in 10.0 mi Calm Calm - N/A   Clear
7:51 PM 24.1 °F - 8.1 °F 51% 30.35 in 10.0 mi Calm Calm - N/A   Clear
8:51 PM 21.9 °F - 8.1 °F 55% 30.35 in 10.0 mi Calm Calm - N/A   Clear
9:51 PM 21.9 °F - 8.1 °F 55% 30.34 in 10.0 mi Calm Calm - N/A   Clear
10:51 PM 17.1 °F - 8.1 °F 68% 30.34 in 10.0 mi Calm Calm - N/A   Clear
11:51 PM 16.0 °F - 8.1 °F 71% 30.32 in 10.0 mi Calm Calm - N/A   Clear